Location: Baia Mare
(47.6567°N, 23.5850°E)
Time: 20:11:48
(UTC+02:00)

ISS - Pass Details

Date: 03 October 2018
Orbit: 402 x 409 km, 51.6° (Epoch: 13 November)

Event Time Altitude Azimuth Distance (km) Brightness Sun altitude
Rises 21:26:47 0° 293° (WNW) 2,347 1.5 -24.8°
Reaches altitude 10° 21:28:53 10° 295° (WNW) 1,483 0.1 -25.2°
Enters shadow 21:30:43 30° 301° (WNW) 772 -1.8 -25.4°
